Printer-friendly version
Follow the MPC on Twitter Follow the MPC on Facebook The MPC blog
Minor Planet Center

MPEC 2005-H37 : 2003 MM

The following Minor Planet Electronic Circular may be linked-to from your own Web pages, but must not otherwise be redistributed electronically.

A form allowing access to any MPEC is at the bottom of this page.


Read MPEC 2005-H36 Read MPEC 2005-H38


M.P.E.C. 2005-H37                                Issued 2005 Apr. 29, 03:44 UT

     The Minor Planet Electronic Circulars contain information on unusual
         minor planets and routine data on comets.  They are published
   on behalf of Commission 20 of the International Astronomical Union by the
          Minor Planet Center, Smithsonian Astrophysical Observatory,
                          Cambridge, MA 02138, U.S.A.

                  Supported in part by the Brinson Foundation
             Prepared using the Tamkin Foundation Computer Network

                              MPC@CFA.HARVARD.EDU
          URL http://cfa-www.harvard.edu/iau/mpc.html  ISSN 1523-6714

                                    2003 MM

                           Revision to MPEC 2003-M27

Additional Observations:
     K03M00M  C2002 08 11.43135 21 41 50.51 -21 27 52.9          20.1 R EH037644
     K03M00M  C2002 08 11.44214 21 41 48.65 -21 28 14.8          20.1 R EH037644
     K03M00M  C2002 08 15.23314 21 31 34.90 -23 35 54.3          20.2 R EH037644
     K03M00M  C2002 08 15.31030 21 31 21.60 -23 38 25.3          20.1 R EH037644
     K03M00M  C2002 08 15.38002 21 31 09.48 -23 40 40.3          19.5 R EH037644
     K03M00M  C2002 08 30.23230 20 55 02.67 -29 56 14.9                 EH037644
     K03M00M  C2002 08 30.25307 20 54 59.99 -29 56 36.7          20.3 R EH037644

Observer details:
644 Palomar Mountain/NEAT.  Observers E. F. Helin, S. Pravdo, K. Lawrence,
    K. Kuluhiwa, M. Hicks, R. Thicksten.  Measurer R. Matson.  1.2-m Schmidt
    + CCD.

Orbital elements:
2003 MM
Epoch 2005 Jan. 30.0 TT = JDT 2453400.5                 MPC
M 269.68472              (2000.0)            P               Q
n   0.91187019     Peri.   19.75126     -0.84030539     -0.52923691
a   1.0532077      Node   127.73571     +0.47527903     -0.82342428
e   0.2562148      Incl.    8.54094     +0.26076178     -0.20464786
P   1.08           H   21.7           G   0.15           U   5
Residuals in seconds of arc
020811 644  0.1-  0.6-    030623 651  0.3+  0.2+    030629 246  0.1+  0.4-
020811 644  0.4-  0.3-    030623 651  0.6+  0.3+    030629 246  0.7+  0.4-
020815 644  0.2+  0.6+    030623 651  0.1+  0.2+    030629 246  0.4+  0.2+
020815 644  0.6+  0.7+    030623 448  0.0   0.1-    030629 246  0.8+  0.1-
020815 644  0.1-  0.2+    030623 448  0.5+  0.3-    030629 246  0.4+  0.1-
020830 644  0.1-  0.8-    030623 448  0.8+  0.3-    030629 246  0.5+  0.1-
020830 644  0.1-  0.3-    030624 J95  0.1-  0.1+    030703 649  0.5+  0.3-
030621 704  0.5+  0.3-    030624 J95  0.0   0.2-    030703 649  0.4+  0.3-
030621 704  0.2+  0.3-    030624 J95  0.2-  0.0     030703 649  0.4+  0.4-
030621 704  0.2+  0.2-    030625 246  0.1-  0.7+    030703 176  0.2+  0.2-
030621 704  0.5+  0.9-    030625 246  0.1-  0.4+    030703 176  0.3+  0.2+
030622 704  0.9+  0.1+    030625 246  0.4+  0.7+    030703 176  0.6-  0.5-
030622 704  0.6+  1.5+    030625 246  0.9-  0.9+    030703 176  1.1-  0.7-
030622 704  1.0+  1.1+    030625 246  0.4-  0.4-    030703 176  1.2-  1.1-
030622 587 (4.8-  8.4-)   030625 246  0.3+  0.1-    030710 448  1.3-  0.2-
030622 587  1.1-  1.3+    030626 448  0.3-  0.0     030710 448  1.0-  0.1+
030622 587  0.2-  0.3-    030626 448  0.2-  0.2+    030710 448  0.4+  0.1+
030622 587  0.3-  0.2-    030626 448  0.2+  0.1-    030718 413  0.5-  0.0
030622 620  0.2-  0.4-    030628 941  0.1-  0.7+    030718 413  0.2+  0.3-
030623 620  0.0   0.4-    030628 941  0.7-  0.3+    030719 448  0.8+  0.2-
030623 620  0.5+  0.1-    030628 941  1.1-  0.6+    030719 448  1.7+  1.1+
030623 333  0.4-  0.7-    030628 941  1.0-  0.1+    030719 448  1.4+  1.3+
030623 333  1.2-  0.8-    030628 941  1.2-  0.1+

Gareth V. Williams           (C) Copyright 2005 MPC           M.P.E.C. 2005-H37

Read MPEC 2005-H36 Read MPEC 2005-H38


MPEC number:

Enter an MPEC number in one of the following forms:

  • 1997-B01 (the full form)
  • J97B01 (the packed version of the full form)
  • B01 (the abbreviated form)

Valid HTML 4.01!